map of ORE home
Great Circle Mapper logo
ORE - Airport
Location
City:  Orléans, France
Name:Bricy
ICAO / IATA:LFOJ / ORE

Details
Type:Airport (Aerodrome, Airfield)
Use:Military
Latitude:47°59'16"N (47.987778)
Longitude:1°45'38"E (1.760556)
Elevation:412 ft (126 m)
Runways:1
Longest:7887 × 148 ft (2404 × 45 m)

Time
Time Zone:UTC+1 (DST+2)
Local Time:

Weather
METAR:LFOJ 250300Z AUTO 19003KT 9999 BKN028 OVC210 11/09 Q1018
TAF:LFOJ 242300Z 2500/2524 17005KT 9999 SCT030 BKN050
BECMG 2503/2505 BKN010 BKN025 PROB30
TEMPO 2509/2515 4000 -RA BKN005
TEMPO 2521/2523 SCT010 BKN025

Related Locations
Nearby:
Farthest:CHT: 12130 mi / 19521 km
Waitangi [Tuuta], Chatham Islands, NZ

Find:

   beyond  
but within

Other Information
Maps:
NOTAMs:
Links:
Sources:

  
flag of France   

Sectional Chart

Flight Planning
at skyvector.com

Satellite Image

Google Maps Satellite View

 

Copyright © 2004-2014 Karl L. Swartz. All rights reserved.
The Great Circle Mapper name and logo are trademarks of the Great Circle Mapper.
All other trademarks mentioned herein belong to their respective owners.
Please see credits for attibutions and further copyright information.

  Follow gcmap on Facebook Follow gcmap on Twitter

hCard Microformat

Geo Microformat